Location: Bruderhein
(53.8035°N, 112.9265°W)
Time: 10:27:52
(UTC+00:00)

DIWATA 2B (PO-101) - Pass Details

Date: 04 April 2023
Orbit: 581 x 593 km, 98.0° (Epoch: 29 May)

Event Time Altitude Azimuth Distance (km) Brightness Sun altitude
Exits shadow 10:12:44 45° 295° (WNW) 806 ? -21.9°
Drops below altitude 10° 10:16:04 10° 336° (NNW) 1,915 ? -21.6°
Sets 10:18:18 0° 342° (NNW) 2,821 ? -21.4°
